Location: Enid
(36.3960°N, 97.8780°W)
Time: 11:47:11
(UTC-06:00)

Hubble Space Telescope - Visible Passes

Search period start: 24 February 2018 00:00
Search period end: 06 March 2018 00:00
Orbit: 537 x 541 km, 28.5° (Epoch: 24 February)

Date Brightness Start Highest point End Pass type
(mag) Time Alt. Az. Time Alt. Az. Time Alt. Az.
24 Feb 2.1 05:38:36 24° SSW 05:39:37 27° S 05:43:08 10° ESE visible
25 Feb 2.1 05:28:54 26° SSW 05:29:17 26° S 05:32:46 10° SE visible
26 Feb 2.2 05:19:12 25° S 05:19:12 25° S 05:22:22 10° SE visible
27 Feb 2.6 05:09:32 22° SSE 05:09:32 22° SSE 05:11:55 10° SE visible
28 Feb 2.9 04:59:54 17° SSE 04:59:54 17° SSE 05:01:26 10° SE visible
01 Mar 3.4 04:50:18 12° SSE 04:50:18 12° SSE 04:50:53 10° SE visible
